SCP
0 0 0 0 0 0 0 0 0 0 0 0 0 0 0 0 0 0 0 0 0 0 0 0 0 0 0 0 0 0 0 0 0 0 0 0 0 0 0 0 0 0 0
0 0 0 0 0 0 0 0 0 0 0 0 0 0 0 0 0 0 0 0 0 0 0 0 0 0 0 0 0 0 0 0 0 0 0 0 0 0 0 0 0 0 0
0 0 0 0 0 0 0 0 0 0 0 0 0 0 0 0 0 0 0 0 0 0 0 0 0 0 0 0 0 0 0 0 0 0 0 0 0 0 0 0 0 0 0
0 0 0 0 0 0 0 0 0 0 0 0 0 0 0 0 0 0 0 0 0 0 0 0 0 0 0 0 0 0 0 0 0 0 0 0 0 0 0 0 0 0 0
0 0 0 0 0 0 0 0 0 0 0 0 0 0 0 0 0 0 0 0 0 0 0 0 0 0 0 0 0 0 0 0 0 0 0 0 0 0 0 -0 -0 0 0
0 0 0 0 0 0 0 0 0 0 0 0 0 0 0 0 0 0 0 0 0 0 0 0 0 0 0 0 0 0 0 0 0 0 0 0 -0 -0 -0 0 0 0 0
0 0 0 0 0 0 0 0 0 0 0 0 0 0 -0 0 0 0 0 0 0 0 0 0 0 0 0 0 0 0 0 0 0 0 -0 -0 -0 0 0 0 0 0 -0
0 0 0 0 0 0 0 0 0 0 0 0 0 0 0 0 0 -0 0 0 0 0 0 0 0 0 0 0 -0 -0 -0 -0 -0 -0 -0 0 0 0 0 0 0 0 0
0 0 0 0 0 0 0 0 0 0 0 0 0 0 0 0 0 -0 -0 0 0 0 0 -0 -0 -0 -0 -0 -0 -0 -0 -0 -0 -0 -0 -0 -0 0 0 0 0 0 0
0 0 0 0 0 0 0 0 0 0 0 0 0 0 0 0 0 0 0 0 0 -0 -0 -0 -0 -0 -0 -0 -0 -0 -0 -0 -0 0 0 0 0 0 -0 0 0 0 0
0 0 0 0 0 0 0 0 0 0 -0 -0 0 0 0 0 0 0 0 -0 0 0 0 -0 -0 -0 -0 -0 -0 -0 -0 -0 -0 -0 -0 -0 -0 -0 0 -0 0 0 0
0 0 0 0 0 0 0 0 -0 -0 -0 -0 0 -0 -0 -0 -0 -0 -0 -0 -0 -0 -0 -0 -0 0 -0 0 0 -0 0 0 -0 0 0 -0 0 0 0 0 0 0 0
0 0 0 0 0 0 0 0 0 0 -0 -0 -0 -0 -0 -0 -0 -0 -0 -0 0 0 -0 -0 -0 0 0 0 0 0 0 -0 -0 -0 -0 -0 -0 -0 0 0 0 0 0
0 0 0 0 0 0 0 0 -0 -0 -0 -0 0 -0 0 0 0 0 0 0 0 -0 0 0 0 0 0 0 0 0 0 0 0 0 0 0 0 0 0 0 0 0 0
0 0 0 0 0 0 0 0 0 -0 -0 -0 0 -0 -0 0 -0 -0 -0 0 0 0 0 0 0 0 0 0 0 0 -0 0 0 0 0 0 0 0 0 0 0 0 0
0 0 0 0 0 0 0 0 -0 -0 -0 -0 -0 -0 -0 -0 -0 -0 -0 -0 -0 0 0 -0 -0 -0 -0 -0 0 0 0 0 0 0 0 0 0 0 0 0 0 0 0
0 0 0 0 0 0 0 0 0 0 0 -0 -0 -0 -0 -0 -0 -0 -0 -0 0 -0 0 -0 -0 0 0 -0 0 0 0 0 0 0 0 0 0 0 0 0 0 0 0
0 0 0 0 0 0 0 0 0 0 0 -0 -0 -0 -0 0 0 0 0 0 -0 0 -0 -0 0 -0 -0 0 0 0 0 0 0 0 0 0 0 0 0 0 0 0 0
0 0 0 0 0 0 0 0 0 0 0 0 -0 -0 -0 -0 0 0 0 0 0 0 0 0 0 -0 -0 -0 0 0 0 0 0 0 0 0 0 0 0 0 0 0 0
0 0 0 0 0 0 -0 -0 0 0 0 0 0 0 0 0 0 0 0 0 0 0 0 0 0 0 0 0 0 0 0 0 0 0 0 0 0 0 0 0 0 0 0
0 0 0 0 0 0 0 0 -0 0 0 0 0 0 0 0 0 0 0 0 0 0 -0 -0 -0 0 0 0 0 0 0 0 0 0 0 0 0 0 0 0 0 0 0
0 0 0 0 0 0 0 0 -0 -0 -0 -0 -0 0 0 0 0 0 0 0 0 0 0 -0 0 -0 0 0 0 0 0 0 0 0 0 0 0 0 0 0 0 0 0
0 0 0 0 0 0 0 0 0 0 0 -0 -0 0 0 0 0 0 0 0 0 0 0 0 0 0 0 0 0 0 0 0 0 0 0 0 0 0 0 0 0 0 0
0 0 0 0 0 0 0 0 0 0 0 0 -0 0 0 0 0 0 0 0 0 0 0 0 0 0 0 0 0 0 0 0 0 0 0 0 0 0 0 0 0 0 0
0 0 0 0 0 0 0 0 0 0 0 0 0 -0 0 -0 0 0 1 0 0 0 0 0 0 0 0 0 0 0 0 0 0 0 0 0 0 0 0 0 0 0 0
0 0 0 0 0 0 0 0 0 0 0 0 -0 -0 0 0 0 0 0 0 0 0 0 0 0 0 0 0 0 0 0 0 0 0 0 0 0 0 0 0 0 0 0
Wind_Speed_500mb
16 22 28 30 29 29 26 23 25 24 23 25 32 35 40 42 44 48 53 60 69 71 81 87 89 87 93 95 66 62 67 73 68 75 75 68 52 40 32 35 29 21 17
18 23 27 29 30 29 30 30 29 29 28 23 22 24 27 31 32 36 40 50 56 61 61 57 55 66 64 60 45 61 55 55 57 65 60 62 49 43 35 28 24 14 20
17 21 21 24 24 22 23 23 25 27 28 26 26 22 21 21 22 21 29 36 38 39 44 50 50 41 40 42 43 49 46 46 55 67 55 39 33 43 31 22 21 18 28
13 22 22 15 16 16 16 18 19 18 23 23 22 19 16 14 17 20 23 25 26 30 34 38 42 43 43 47 37 45 55 51 39 44 26 19 20 27 25 23 21 24 19
5 9 13 19 16 17 18 19 21 20 18 16 18 14 13 18 19 20 21 23 22 25 31 34 35 29 33 28 31 41 43 44 41 29 17 22 21 25 31 22 32 19 18
14 18 19 16 16 25 30 27 19 11 10 12 11 10 10 13 19 17 18 21 19 24 23 26 28 42 33 33 27 22 19 34 31 31 26 24 26 32 31 29 25 25 32
19 26 24 17 23 30 34 33 18 10 11 10 11 3 3 3 10 18 23 27 29 29 30 30 25 26 23 26 25 28 30 33 34 28 25 33 36 36 36 34 34 35 38
21 21 20 22 28 25 25 27 24 19 20 25 23 9 12 12 17 21 21 18 21 22 24 28 25 32 38 34 37 31 28 28 36 34 35 30 28 32 34 41 45 47 53
18 18 19 18 12 18 21 21 26 22 22 17 20 20 19 19 16 10 14 14 15 19 21 29 29 23 21 19 21 23 30 34 37 36 38 38 39 43 43 44 42 40 43
22 21 19 16 20 13 18 30 28 29 21 20 14 23 27 24 20 20 13 21 25 29 24 11 12 20 24 29 28 27 28 25 22 22 24 23 24 27 37 44 45 54 58
21 17 16 14 9 15 15 6 21 28 26 32 38 34 31 20 21 20 27 26 14 6 14 22 26 34 33 33 33 29 24 21 25 23 27 30 35 37 30 29 30 35 41
14 19 19 17 18 13 13 3 15 19 25 15 9 13 18 16 31 29 27 25 22 23 17 12 17 18 17 23 25 24 28 31 33 33 33 35 35 35 35 38 43 46 48
21 22 26 20 18 23 22 17 19 17 17 14 13 12 18 18 25 32 35 39 41 41 36 27 22 24 31 28 29 29 33 37 39 41 43 39 34 31 37 41 47 53 63
27 26 19 19 21 28 23 22 19 20 20 20 23 26 32 37 37 31 29 29 30 30 30 27 21 20 20 25 32 36 39 39 41 39 32 28 29 36 38 37 44 52 57
28 28 30 27 25 25 27 29 28 23 28 25 31 31 35 35 33 29 30 32 33 30 25 25 21 21 23 27 28 32 29 22 23 28 31 32 36 37 37 38 45 53 59
41 39 35 37 40 39 42 37 34 33 33 34 26 15 21 21 30 32 31 29 23 23 28 23 25 35 26 26 24 26 25 27 26 29 33 34 40 43 46 49 51 55 66
50 42 39 37 37 34 39 39 32 36 37 39 35 31 30 28 26 24 32 27 31 32 35 31 28 29 35 36 35 37 40 41 40 42 41 42 46 45 45 39 41 57 67
41 40 38 37 40 40 38 47 38 32 35 41 49 45 43 43 35 31 28 32 37 42 50 44 40 39 41 41 38 36 35 36 39 43 45 46 36 34 36 39 38 40 47
48 46 44 44 44 41 41 48 46 44 43 47 43 38 42 51 48 43 41 43 42 34 33 34 45 43 42 41 41 41 42 45 43 39 37 40 40 49 55 53 48 62 77
56 55 52 50 45 48 47 47 52 50 51 53 55 55 43 54 60 58 52 51 52 45 40 43 50 45 37 33 40 43 48 47 49 48 35 27 32 43 49 56 64 73 75
58 59 58 62 51 48 49 51 53 48 52 53 54 45 60 55 58 59 51 48 44 43 44 48 55 45 45 46 50 46 28 24 21 29 30 38 52 62 69 67 55 57 50
61 60 61 62 59 56 54 53 55 54 53 52 52 49 55 63 68 64 49 40 38 37 33 34 35 44 42 45 36 31 36 37 39 42 46 51 52 51 45 41 41 43 38
44 71 67 56 63 65 61 57 56 52 59 59 52 52 53 53 62 56 49 53 60 61 39 42 49 47 40 39 41 41 44 47 50 55 52 46 41 37 37 39 37 30 31
54 40 48 58 52 58 65 67 69 61 60 55 63 63 67 62 56 61 68 56 57 43 39 38 39 44 53 54 53 55 60 57 55 41 35 37 36 32 24 22 26 31 35
32 30 32 34 56 64 59 60 65 68 84 78 51 76 71 69 65 59 63 65 60 51 52 59 55 50 54 50 54 56 44 31 31 33 35 29 22 18 18 27 33 36 39
37 38 44 50 39 26 30 44 28 63 57 69 70 56 46 51 48 64 70 60 55 58 50 48 56 55 47 36 28 32 30 21 28 26 21 20 17 12 26 32 32 38 42
Wind_Direction_500mb
324 319 316 316 320 323 323 320 316 312 301 286 280 277 275 267 264 264 260 258 251 248 247 247 238 235 231 235 233 224 218 200 194 180 189 193 196 193 194 213 225 248 233
323 324 320 318 317 319 319 326 325 323 325 325 311 298 291 284 272 264 260 253 249 245 244 241 236 232 231 234 232 204 199 181 184 165 180 177 192 195 190 201 224 219 283
338 341 339 338 341 345 339 340 330 330 331 327 319 310 297 286 276 257 242 238 234 237 235 233 229 219 201 191 193 191 184 179 172 169 172 180 172 188 210 210 219 232 237
312 324 331 354 355 351 341 335 327 322 317 318 318 311 292 250 227 223 217 212 206 197 184 182 175 171 162 152 143 127 136 142 156 168 147 158 192 187 210 209 225 243 258
277 280 315 314 328 333 330 332 318 310 312 314 312 286 248 224 213 210 210 212 207 198 191 188 175 160 162 156 155 137 126 129 141 151 165 170 163 182 213 232 238 239 269
253 254 261 288 307 315 309 311 294 280 310 315 321 300 246 249 243 225 237 235 220 220 211 212 215 221 233 251 249 225 163 167 150 147 154 173 205 213 220 230 239 240 261
245 248 257 269 292 296 288 287 270 256 231 250 267 264 161 257 121 130 120 113 120 121 127 132 132 133 134 134 133 137 139 143 155 163 192 210 218 224 217 225 241 242 252
242 252 256 283 289 294 292 282 245 229 224 227 226 221 195 196 139 133 132 146 129 131 129 125 136 154 153 143 145 157 171 188 201 210 212 213 210 207 223 235 244 255 259
230 251 270 273 260 308 304 284 246 235 222 213 211 211 204 200 177 132 132 128 145 150 156 160 155 153 173 177 199 209 219 220 212 219 223 243 243 244 247 252 255 259 266
240 270 263 245 261 275 283 282 236 215 209 184 158 180 194 194 188 160 186 176 153 163 171 180 157 180 184 197 197 200 212 215 226 238 240 254 265 273 260 255 259 259 263
241 245 215 218 242 224 314 323 224 244 238 237 233 229 243 185 201 205 213 202 197 182 224 241 235 208 205 206 199 208 229 239 239 247 262 263 270 277 272 271 274 273 280
209 200 210 224 239 233 230 115 109 121 131 129 122 137 204 198 194 210 201 171 178 208 253 228 257 262 246 234 233 243 248 252 249 246 247 255 268 275 284 283 282 283 282
200 198 219 229 234 192 220 236 238 228 229 228 222 228 231 234 211 216 221 236 250 254 227 229 233 235 245 243 249 258 261 258 257 256 256 259 263 267 272 272 267 276 288
202 206 210 234 224 196 191 211 223 232 227 224 217 224 236 234 241 241 235 223 217 222 231 242 248 253 253 256 253 259 261 256 254 255 259 268 277 276 270 270 277 279 277
206 210 213 213 208 209 218 230 237 228 226 231 240 241 234 231 237 238 242 239 240 245 251 251 238 255 273 278 265 262 260 263 268 261 260 262 262 264 268 276 279 281 279
208 222 230 225 228 227 229 240 237 249 242 242 266 226 228 258 246 235 229 231 229 230 239 246 242 250 263 262 262 263 259 261 264 259 261 267 268 267 270 275 275 279 285
215 217 236 238 230 235 223 227 230 230 238 246 251 237 225 223 224 218 214 216 222 230 238 235 238 247 249 251 250 249 250 261 269 260 262 265 267 270 280 275 276 281 289
216 225 226 225 228 229 240 220 220 230 236 246 242 239 230 232 233 234 222 221 231 237 237 236 242 245 247 252 251 251 252 255 258 260 263 268 264 266 279 284 287 282 279
226 225 226 220 233 236 235 227 230 232 234 232 245 244 234 230 231 231 231 237 239 236 250 246 233 231 236 242 249 251 250 253 258 261 261 266 277 278 285 291 289 292 294
222 224 227 226 231 236 242 242 230 233 239 239 237 237 235 228 224 226 229 234 234 230 231 240 252 257 254 238 237 250 257 253 262 269 269 277 277 277 281 285 291 295 297
224 230 229 230 232 230 233 238 243 242 237 241 240 238 229 230 230 224 226 235 240 238 235 233 238 244 257 256 250 250 248 263 241 246 246 260 274 286 292 298 299 302 306
228 231 231 228 230 233 236 241 248 249 249 249 246 239 240 239 231 227 228 242 242 241 240 226 228 240 247 243 233 229 234 241 250 261 274 285 292 293 299 307 314 314 317
241 231 229 232 233 236 235 240 243 244 245 248 255 249 261 239 225 223 231 233 238 242 248 244 230 230 249 250 247 253 261 270 281 293 294 293 297 301 303 307 312 313 315
250 259 248 236 246 238 238 239 243 244 242 240 245 250 245 253 240 245 237 241 245 245 223 232 217 219 231 244 252 263 271 276 280 281 291 295 294 299 308 322 320 308 304
310 304 292 250 244 237 251 249 241 251 250 244 258 255 243 248 255 235 228 236 235 231 227 229 233 230 234 245 259 267 273 272 284 286 285 285 289 301 313 305 302 309 307
322 318 298 301 330 291 249 245 254 238 238 239 259 278 253 252 267 244 234 219 214 222 227 234 247 249 256 257 269 277 276 274 276 278 275 283 286 282 297 296 298 304 306
Wind_Speed_850mb
16 22 28 30 29 29 26 23 25 24 23 25 32 35 40 42 44 48 53 60 69 71 81 87 89 87 93 95 66 62 67 73 68 75 75 68 52 40 32 35 29 21 17
18 23 27 29 30 29 30 30 29 29 28 23 22 24 27 31 32 36 40 50 56 61 61 57 55 66 64 60 45 61 55 55 57 65 60 62 49 43 35 28 24 14 20
17 21 21 24 24 22 23 23 25 27 28 26 26 22 21 21 22 21 29 36 38 39 44 50 50 41 40 42 43 49 46 46 55 67 55 39 33 43 31 22 21 18 28
13 22 22 15 16 16 16 18 19 18 23 23 22 19 16 14 17 20 23 25 26 30 34 38 42 43 43 47 37 45 55 51 39 44 26 19 20 27 25 23 21 24 19
5 9 13 19 16 17 18 19 21 20 18 16 18 14 13 18 19 20 21 23 22 25 31 34 35 29 33 28 31 41 43 44 41 29 17 22 21 25 31 22 32 19 18
14 18 19 16 16 25 30 27 19 11 10 12 11 10 10 13 19 17 18 21 19 24 23 26 28 42 33 33 27 22 19 34 31 31 26 24 26 32 31 29 25 25 32
19 26 24 17 23 30 34 33 18 10 11 10 11 3 3 3 10 18 23 27 29 29 30 30 25 26 23 26 25 28 30 33 34 28 25 33 36 36 36 34 34 35 38
21 21 20 22 28 25 25 27 24 19 20 25 23 9 12 12 17 21 21 18 21 22 24 28 25 32 38 34 37 31 28 28 36 34 35 30 28 32 34 41 45 47 53
18 18 19 18 12 18 21 21 26 22 22 17 20 20 19 19 16 10 14 14 15 19 21 29 29 23 21 19 21 23 30 34 37 36 38 38 39 43 43 44 42 40 43
22 21 19 16 20 13 18 30 28 29 21 20 14 23 27 24 20 20 13 21 25 29 24 11 12 20 24 29 28 27 28 25 22 22 24 23 24 27 37 44 45 54 58
21 17 16 14 9 15 15 6 21 28 26 32 38 34 31 20 21 20 27 26 14 6 14 22 26 34 33 33 33 29 24 21 25 23 27 30 35 37 30 29 30 35 41
14 19 19 17 18 13 13 3 15 19 25 15 9 13 18 16 31 29 27 25 22 23 17 12 17 18 17 23 25 24 28 31 33 33 33 35 35 35 35 38 43 46 48
21 22 26 20 18 23 22 17 19 17 17 14 13 12 18 18 25 32 35 39 41 41 36 27 22 24 31 28 29 29 33 37 39 41 43 39 34 31 37 41 47 53 63
27 26 19 19 21 28 23 22 19 20 20 20 23 26 32 37 37 31 29 29 30 30 30 27 21 20 20 25 32 36 39 39 41 39 32 28 29 36 38 37 44 52 57
28 28 30 27 25 25 27 29 28 23 28 25 31 31 35 35 33 29 30 32 33 30 25 25 21 21 23 27 28 32 29 22 23 28 31 32 36 37 37 38 45 53 59
41 39 35 37 40 39 42 37 34 33 33 34 26 15 21 21 30 32 31 29 23 23 28 23 25 35 26 26 24 26 25 27 26 29 33 34 40 43 46 49 51 55 66
50 42 39 37 37 34 39 39 32 36 37 39 35 31 30 28 26 24 32 27 31 32 35 31 28 29 35 36 35 37 40 41 40 42 41 42 46 45 45 39 41 57 67
41 40 38 37 40 40 38 47 38 32 35 41 49 45 43 43 35 31 28 32 37 42 50 44 40 39 41 41 38 36 35 36 39 43 45 46 36 34 36 39 38 40 47
48 46 44 44 44 41 41 48 46 44 43 47 43 38 42 51 48 43 41 43 42 34 33 34 45 43 42 41 41 41 42 45 43 39 37 40 40 49 55 53 48 62 77
56 55 52 50 45 48 47 47 52 50 51 53 55 55 43 54 60 58 52 51 52 45 40 43 50 45 37 33 40 43 48 47 49 48 35 27 32 43 49 56 64 73 75
58 59 58 62 51 48 49 51 53 48 52 53 54 45 60 55 58 59 51 48 44 43 44 48 55 45 45 46 50 46 28 24 21 29 30 38 52 62 69 67 55 57 50
61 60 61 62 59 56 54 53 55 54 53 52 52 49 55 63 68 64 49 40 38 37 33 34 35 44 42 45 36 31 36 37 39 42 46 51 52 51 45 41 41 43 38
44 71 67 56 63 65 61 57 56 52 59 59 52 52 53 53 62 56 49 53 60 61 39 42 49 47 40 39 41 41 44 47 50 55 52 46 41 37 37 39 37 30 31
54 40 48 58 52 58 65 67 69 61 60 55 63 63 67 62 56 61 68 56 57 43 39 38 39 44 53 54 53 55 60 57 55 41 35 37 36 32 24 22 26 31 35
32 30 32 34 56 64 59 60 65 68 84 78 51 76 71 69 65 59 63 65 60 51 52 59 55 50 54 50 54 56 44 31 31 33 35 29 22 18 18 27 33 36 39
37 38 44 50 39 26 30 44 28 63 57 69 70 56 46 51 48 64 70 60 55 58 50 48 56 55 47 36 28 32 30 21 28 26 21 20 17 12 26 32 32 38 42
Wind_Direction_850mb
324 319 316 316 320 323 323 320 316 312 301 286 280 277 275 267 264 264 260 258 251 248 247 247 238 235 231 235 233 224 218 200 194 180 189 193 196 193 194 213 225 248 233
323 324 320 318 317 319 319 326 325 323 325 325 311 298 291 284 272 264 260 253 249 245 244 241 236 232 231 234 232 204 199 181 184 165 180 177 192 195 190 201 224 219 283
338 341 339 338 341 345 339 340 330 330 331 327 319 310 297 286 276 257 242 238 234 237 235 233 229 219 201 191 193 191 184 179 172 169 172 180 172 188 210 210 219 232 237
312 324 331 354 355 351 341 335 327 322 317 318 318 311 292 250 227 223 217 212 206 197 184 182 175 171 162 152 143 127 136 142 156 168 147 158 192 187 210 209 225 243 258
277 280 315 314 328 333 330 332 318 310 312 314 312 286 248 224 213 210 210 212 207 198 191 188 175 160 162 156 155 137 126 129 141 151 165 170 163 182 213 232 238 239 269
253 254 261 288 307 315 309 311 294 280 310 315 321 300 246 249 243 225 237 235 220 220 211 212 215 221 233 251 249 225 163 167 150 147 154 173 205 213 220 230 239 240 261
245 248 257 269 292 296 288 287 270 256 231 250 267 264 161 257 121 130 120 113 120 121 127 132 132 133 134 134 133 137 139 143 155 163 192 210 218 224 217 225 241 242 252
242 252 256 283 289 294 292 282 245 229 224 227 226 221 195 196 139 133 132 146 129 131 129 125 136 154 153 143 145 157 171 188 201 210 212 213 210 207 223 235 244 255 259
230 251 270 273 260 308 304 284 246 235 222 213 211 211 204 200 177 132 132 128 145 150 156 160 155 153 173 177 199 209 219 220 212 219 223 243 243 244 247 252 255 259 266
240 270 263 245 261 275 283 282 236 215 209 184 158 180 194 194 188 160 186 176 153 163 171 180 157 180 184 197 197 200 212 215 226 238 240 254 265 273 260 255 259 259 263
241 245 215 218 242 224 314 323 224 244 238 237 233 229 243 185 201 205 213 202 197 182 224 241 235 208 205 206 199 208 229 239 239 247 262 263 270 277 272 271 274 273 280
209 200 210 224 239 233 230 115 109 121 131 129 122 137 204 198 194 210 201 171 178 208 253 228 257 262 246 234 233 243 248 252 249 246 247 255 268 275 284 283 282 283 282
200 198 219 229 234 192 220 236 238 228 229 228 222 228 231 234 211 216 221 236 250 254 227 229 233 235 245 243 249 258 261 258 257 256 256 259 263 267 272 272 267 276 288
202 206 210 234 224 196 191 211 223 232 227 224 217 224 236 234 241 241 235 223 217 222 231 242 248 253 253 256 253 259 261 256 254 255 259 268 277 276 270 270 277 279 277
206 210 213 213 208 209 218 230 237 228 226 231 240 241 234 231 237 238 242 239 240 245 251 251 238 255 273 278 265 262 260 263 268 261 260 262 262 264 268 276 279 281 279
208 222 230 225 228 227 229 240 237 249 242 242 266 226 228 258 246 235 229 231 229 230 239 246 242 250 263 262 262 263 259 261 264 259 261 267 268 267 270 275 275 279 285
215 217 236 238 230 235 223 227 230 230 238 246 251 237 225 223 224 218 214 216 222 230 238 235 238 247 249 251 250 249 250 261 269 260 262 265 267 270 280 275 276 281 289
216 225 226 225 228 229 240 220 220 230 236 246 242 239 230 232 233 234 222 221 231 237 237 236 242 245 247 252 251 251 252 255 258 260 263 268 264 266 279 284 287 282 279
226 225 226 220 233 236 235 227 230 232 234 232 245 244 234 230 231 231 231 237 239 236 250 246 233 231 236 242 249 251 250 253 258 261 261 266 277 278 285 291 289 292 294
222 224 227 226 231 236 242 242 230 233 239 239 237 237 235 228 224 226 229 234 234 230 231 240 252 257 254 238 237 250 257 253 262 269 269 277 277 277 281 285 291 295 297
224 230 229 230 232 230 233 238 243 242 237 241 240 238 229 230 230 224 226 235 240 238 235 233 238 244 257 256 250 250 248 263 241 246 246 260 274 286 292 298 299 302 306
228 231 231 228 230 233 236 241 248 249 249 249 246 239 240 239 231 227 228 242 242 241 240 226 228 240 247 243 233 229 234 241 250 261 274 285 292 293 299 307 314 314 317
241 231 229 232 233 236 235 240 243 244 245 248 255 249 261 239 225 223 231 233 238 242 248 244 230 230 249 250 247 253 261 270 281 293 294 293 297 301 303 307 312 313 315
250 259 248 236 246 238 238 239 243 244 242 240 245 250 245 253 240 245 237 241 245 245 223 232 217 219 231 244 252 263 271 276 280 281 291 295 294 299 308 322 320 308 304
310 304 292 250 244 237 251 249 241 251 250 244 258 255 243 248 255 235 228 236 235 231 227 229 233 230 234 245 259 267 273 272 284 286 285 285 289 301 313 305 302 309 307
322 318 298 301 330 291 249 245 254 238 238 239 259 278 253 252 267 244 234 219 214 222 227 234 247 249 256 257 269 277 276 274 276 278 275 283 286 282 297 296 298 304 306